Portada
METAR-TAF:

METAR-TAF

Aeroports :

Pacific Missile Test Facility Barking Sands

Kekaha, Hawaii, Estats Units d'Amèrica

latitud: 22-02-11N, longitud: 159-47-11W, altitud: 4 m

Observació

L'informe es va fer fa 22 minuts, a les 14:56 UTC
Vent 4 kt del Nord-Est
Temperatura 17°C
Humitat 77%
Pressió 1017 hPa
Visibilitat: 16.1 km
Cel clar

METAR: PHBK 181456Z AUTO 04004KT 10SM CLR 17/13 A3004 RMK AO2 SLP173 T01720133 55007

Hora: 05:18 (15:18 UTC)


TAF: manca

Observacions i pronòstics meteorològics de més de 4000 aeroports (METAR i TAF).

Les estacions disponibles són els punts grocs i vermells al mapa.

Posi el ratolí al punt desitjat per veure el nom de l'estació.

Feu clic per veure les observacions i els pronòstics meteorològics.

Per canviar el mapa: feu clic els botons verds amb una creu de color negre per apropar; al botó verd amb un guió per allunyar la imatge; o en les fletxes verdes per a mapes adjacents.


METAR-TAF: